Probability
0 0 0 0 0 0 0 0 0 0 0 0 0 0 0 0 0 0 0 0 0 0 0 0 0 0 0 0 0 0 0 0 0 0 0 0 0 0 0 0 0 0 0 0
0 0 0 0 0 0 0 0 0 0 0 0 0 0 0 0 0 0 0 0 0 0 0 0 0 0 0 0 0 0 0 0 0 0 0 0 0 0 0 0 0 0 0 0
0 0 0 0 0 0 0 0 0 0 0 0 0 0 0 0 0 0 0 0 0 0 0 0 0 0 0 0 0 0 0 0 0 0 0 0 0 0 0 0 0 0 0 0
0 0 0 0 0 0 0 0 0 0 0 0 0 0 0 0 0 0 0 0 0 0 0 0 0 0 0 0 0 0 0 0 0 0 0 0 0 0 0 0 0 0 0 0
0 0 0 0 0 0 0 0 0 0 0 0 0 0 0 0 0 0 0 0 0 0 0 0 0 0 0 0 0 0 0 0 0 0 0 0 0 0 0 0 0 0 0 0
0 0 0 0 0 0 0 0 0 0 0 0 0 0 0 0 0 0 0 0 0 0 0 0 0 0 0 0 0 0 0 0 0 0 0 0 0 0 0 0 0 0 0 0
0 0 0 0 0 0 0 0 0 0 0 0 0 0 0 0 0 0 0 0 0 0 0 0 0 0 0 0 0 0 0 0 0 0 0 0 0 0 0 0 0 0 0 0
0 0 0 0 0 0 0 0 0 0 0 0 0 0 0 0 0 0 0 0 0 0 0 0 0 0 0 0 0 0 0 0 0 0 0 0 0 0 0 0 0 0 0 0
0 0 0 0 0 0 0 0 0 0 0 0 0 0 0 0 0 0 0 0 0 0 0 0 0 0 0 0 0 0 0 0 0 0 0 0 0 0 0 0 0 0 0 0
0 0 0 0 0 0 0 0 0 0 0 0 0 0 0 0 0 0 0 0 0 0 0 0 0 0 0 0 0 0 0 0 0 0 0 0 0 0 0 0 0 0 0 0
0 0 0 0 0 0 0 0 0 0 0 0 0 0 0 0 0 0 0 0 0 0 0 0 0 0 0 0 0 0 0 0 0 0 0 0 0 0 0 0 0 0 0 0
0 0 0 0 0 0 0 0 0 0 0 0 0 0 0 0 0 0 0 0 0 0 0 0 0 0 0 0 0 0 0 0 0 0 0 0 0 0 0 0 0 0 0 0
0 0 0 0 0 0 0 0 0 0 0 0 0 0 0 0 0 0 0 0 0 0 0 0 0 0 0 0 0 0 0 0 0 0 0 0 0 0 0 0 0 0 0 0
0 0 0 0 0 0 0 0 0 0 0 0 0 0 0 0 0 0 0 0 0 0 0 0 0 0 0 0 0 0 0 0 0 0 0 0 0 0 0 0 0 0 0 0
0 0 0 0 0 0 0 0 0 0 0 0 0 0 0 0 0 0 0 0 0 0 0 0 0 0 0 0 0 0 0 0 0 0 0 0 0 0 0 0 0 0 0 0
0 0 0 0 0 0 0 0 0 0 0 0 0 0 0 0 0 0 0 0 0 0 0 0 0 0 0 0 0 0 0 0 0 0 0 0 0 0 0 0 0 0 0 0
0 0 0 0 0 0 0 0 0 0 0 0 0 0 0 0 0 0 0 0 0 0 0 0 0 0 0 0 0 0 0 0 0 0 0 0 0 0 0 0 0 0 0 0
0 0 0 0 0 0 0 0 0 0 0 0 0 0 0 0 0 0 0 0 0 0 0 0 0 0 0 0 0 0 0 0 0 0 0 0 0 0 0 0 0 0 0 0
0 0 0 0 0 0 0 0 0 0 0 0 0 0 0 0 0 0 0 0 0 0 0 0 0 0 0 0 0 0 0 0 0 0 0 0 0 0 0 0 0 0 0 0
0 0 0 0 0 0 0 0 0 0 0 0 0 0 0 0 0 0 0 0 0 0 0 0 0 0 0 0 0 0 0 0 0 0 0 0 0 0 0 0 0 0 0 0
0 0 0 0 0 0 0 0 0 0 0 0 0 0 0 0 0 0 0 0 0 0 0 0 0 0 0 0 0 0 0 0 0 0 0 0 0 0 0 0 0 0 0 0
0 0 0 0 0 0 0 0 0 0 0 0 0 0 0 0 0 0 0 0 0 0 0 0 0 0 0 0 0 0 0 0 0 0 0 0 0 0 0 0 0 0 0 0
0 0 0 0 0 0 0 0 0 0 0 0 0 0 0 0 0 0 0 0 0 0 0 0 0 0 0 0 0 0 0 0 0 0 0 0 0 0 0 0 0 0 0 0
0 0 0 0 0 0 0 0 0 0 0 0 0 0 0 0 0 0 0 0 0 0 0 0 0 0 0 0 0 0 0 0 0 0 0 0 0 0 0 0 0 0 0 0
0 0 0 0 0 0 0 0 0 0 0 0 0 0 0 0 0 0 0 0 0 0 0 0 0 0 0 0 0 0 0 0 0 0 0 0 0 0 0 0 0 0 0 0
0 0 0 0 0 0 0 0 0 0 0 0 0 0 0 0 0 0 0 0 0 0 0 0 0 0 0 0 0 0 0 0 0 0 0 0 0 0 0 0 0 0 0 0
0 0 0 0 0 0 0 0 0 0 0 0 0 0 0 0 0 0 0 0 0 0 0 0 0 0 0 0 0 0 0 0 0 0 0 0 0 0 0 0 0 0 0 0
Wind_Speed
7 5 4 6 8 8 9 10 10 10 11 12 8 7 6 5 4 4 4 4 5 4 3 2 2 2 2 2 2 2 2 1 2 1 1 1 1 0 0 0 1 1 1 1
4 4 4 7 10 11 12 11 11 11 15 9 5 4 4 5 5 6 6 5 4 4 4 4 4 3 3 3 2 2 3 2 2 1 1 1 1 0 0 0 1 1 1 1
4 3 3 8 10 11 8 8 9 14 14 4 4 6 6 6 6 7 6 5 5 4 4 4 4 4 4 4 2 2 3 2 2 2 2 2 1 0 0 1 1 1 1 1
1 1 7 9 3 6 8 9 9 9 7 5 6 5 5 5 6 7 6 5 4 3 3 3 3 3 3 2 2 3 3 2 2 2 2 1 1 1 1 1 1 1 1 2
3 4 9 8 4 4 6 9 8 9 8 5 2 3 5 5 5 6 5 4 3 3 4 3 3 3 2 2 2 3 3 3 2 2 2 2 2 2 1 1 1 1 1 1
4 4 8 8 4 2 1 8 5 6 6 4 1 3 6 2 2 2 2 2 2 2 2 2 2 2 3 3 3 3 4 3 3 2 3 3 2 2 1 1 1 1 1 2
5 6 10 7 3 2 4 7 3 4 4 4 5 6 3 1 1 2 2 2 2 2 2 2 2 2 3 3 4 4 3 2 2 2 2 2 2 1 1 1 1 1 2 2
5 6 11 3 2 5 6 3 3 3 3 3 3 2 1 1 1 1 1 1 1 1 1 1 1 2 2 3 3 2 2 2 2 2 2 1 2 1 1 2 1 1 1 2
9 9 5 3 5 4 3 3 4 3 4 3 3 3 2 2 1 1 1 1 1 2 1 1 1 2 3 3 1 1 1 2 2 1 1 1 2 2 1 1 1 2 2 2
5 8 6 5 4 4 3 4 4 4 3 3 3 3 2 2 2 2 1 1 1 2 1 2 1 1 2 2 1 2 2 1 1 1 1 1 1 2 2 2 2 2 2 2
6 7 5 5 5 6 5 3 3 3 3 3 3 3 3 2 2 2 2 1 2 2 2 2 2 1 1 1 2 2 1 1 1 1 1 1 1 2 2 3 3 3 3 3
8 7 5 7 5 4 4 4 4 3 3 2 2 3 2 2 2 2 2 1 1 2 2 2 1 2 1 1 2 2 1 1 1 1 1 1 1 2 3 4 5 6 5 4
7 4 4 6 4 3 3 4 3 3 3 3 2 2 2 2 2 2 2 2 2 2 2 2 2 2 2 1 1 2 2 2 1 1 1 1 1 2 2 3 4 5 5 6
4 2 4 4 4 4 3 3 2 2 2 1 1 1 1 1 1 2 2 2 2 2 2 2 2 2 2 2 2 2 2 2 2 1 2 2 2 2 2 2 2 3 4 6
4 4 5 4 3 2 2 1 0 1 2 1 1 1 1 1 2 2 2 1 1 1 2 2 2 3 2 2 2 2 2 1 1 1 2 2 2 1 2 2 2 2 2 3
3 2 2 2 3 3 2 1 2 3 2 2 2 2 2 2 2 1 1 1 1 2 2 2 2 2 2 2 2 1 2 3 2 1 1 2 2 2 2 2 2 2 2 3
3 3 3 3 3 3 3 3 3 3 2 2 2 1 1 1 0 1 1 1 2 2 2 2 3 2 2 2 2 2 2 2 3 2 2 2 2 2 2 2 3 3 3 4
5 5 5 4 4 4 3 3 2 2 2 2 1 1 1 1 2 2 2 1 1 1 2 2 2 1 1 2 2 2 2 2 2 2 2 2 2 2 2 2 3 3 3 3
3 3 3 3 3 3 3 2 2 2 1 1 1 1 1 1 1 1 1 0 1 2 2 2 3 1 1 2 2 1 2 2 2 2 2 3 3 2 2 3 3 3 3 3
1 1 2 2 1 1 2 1 1 1 1 1 1 1 0 1 1 1 1 1 2 2 2 2 1 1 1 2 2 1 2 2 2 2 2 2 2 3 3 3 3 3 3 3
2 1 1 1 1 1 1 1 1 1 1 0 1 1 1 1 1 1 1 2 2 2 2 2 1 1 2 2 2 1 2 2 2 2 3 3 3 3 3 3 3 3 3 3
1 1 1 1 0 1 1 1 1 1 0 1 1 1 1 1 1 1 2 2 2 4 2 1 1 3 3 2 1 1 2 2 2 2 3 3 3 3 3 3 3 3 3 3
1 1 1 1 1 1 1 1 1 1 1 1 1 1 2 2 1 1 2 2 2 4 2 2 4 5 4 1 1 2 2 2 2 3 3 3 3 3 3 4 3 3 3 3
0 0 1 0 0 1 1 2 1 1 1 2 2 2 1 1 2 2 2 4 5 5 2 4 6 5 3 1 1 2 2 2 3 3 3 3 3 3 3 3 4 3 4 4
0 0 0 1 1 1 1 1 1 1 1 1 2 2 1 1 2 2 2 3 4 4 2 4 6 4 2 1 1 2 2 3 3 3 3 3 3 3 3 3 3 3 4 4
1 1 1 2 2 2 1 1 1 1 1 2 2 2 1 1 2 1 2 2 3 4 2 2 2 3 1 2 2 2 2 3 3 3 3 3 3 3 3 3 4 4 4 4
1 1 1 1 1 1 1 1 2 2 2 2 2 2 2 1 1 1 2 2 2 2 2 2 2 2 2 2 2 2 2 2 2 3 3 3 3 3 3 4 4 3 4 4
Wind_Direction
251 255 231 237 235 216 215 217 222 244 249 256 246 242 244 238 228 219 218 213 203 200 205 207 210 217 217 217 206 177 168 187 208 205 191 180 164 133 52 4 335 326 337 325
275 260 247 263 252 236 235 234 239 256 265 260 251 236 237 230 227 229 229 223 216 207 201 208 213 216 217 223 217 186 187 211 211 194 186 186 201 187 113 335 321 325 312 301
255 294 340 268 236 220 224 224 213 237 252 256 248 234 229 227 228 231 230 226 222 223 218 220 220 213 215 218 213 202 205 206 202 197 199 204 206 184 208 249 273 295 290 294
228 41 241 245 223 210 228 245 231 241 256 243 237 245 252 234 221 230 226 218 225 234 239 235 228 219 214 206 202 205 212 211 206 201 202 199 191 216 242 253 248 260 280 285
183 235 270 283 250 201 216 263 239 237 255 261 271 315 291 252 221 221 221 220 226 232 227 224 223 206 185 196 200 207 215 220 216 202 196 198 211 224 232 238 268 266 268 274
178 208 243 256 262 250 184 273 248 216 238 249 231 265 272 239 208 221 225 222 225 227 211 211 221 181 176 199 205 219 224 224 218 203 198 203 211 220 227 226 247 268 284 279
207 228 260 267 274 131 189 253 274 224 233 220 220 232 253 220 218 209 219 227 214 191 199 217 206 174 190 203 221 232 231 218 213 205 208 200 187 198 208 222 240 262 279 291
185 215 252 253 145 194 229 280 294 268 243 227 245 258 253 237 214 187 203 242 202 187 223 228 181 176 203 228 241 232 211 203 208 208 211 192 174 199 204 199 216 252 271 292
197 218 248 211 222 252 275 278 284 273 273 240 241 248 243 235 230 223 208 212 214 190 222 244 198 185 211 241 226 202 190 204 206 211 210 189 189 202 206 202 219 252 259 275
242 258 261 265 271 284 281 273 281 280 279 254 241 245 237 232 233 225 220 214 205 178 212 251 240 222 226 232 192 184 199 212 204 197 210 203 212 211 210 215 226 241 249 263
251 270 292 283 263 268 277 283 291 294 271 239 222 239 235 235 229 223 226 221 194 189 215 244 245 240 241 219 190 187 199 213 225 220 212 223 236 231 233 234 234 245 242 240
236 239 231 262 268 262 265 269 265 268 283 260 210 224 233 242 249 237 229 228 207 201 217 236 233 248 249 220 181 175 201 216 224 231 236 235 245 282 275 266 271 273 266 264
237 250 247 267 278 269 256 262 260 253 250 259 255 225 212 236 251 248 250 225 211 215 223 225 229 250 249 212 189 193 210 228 236 234 236 243 244 246 276 289 280 276 277 284
250 249 268 270 273 275 264 261 268 285 279 255 248 239 206 230 242 235 238 237 228 216 222 219 227 245 240 212 204 212 221 243 245 229 237 244 246 250 252 263 287 294 292 292
250 237 240 262 278 283 277 277 314 298 298 296 273 228 204 214 234 249 255 247 216 216 231 223 231 252 239 208 209 217 231 237 234 230 239 248 253 252 250 257 267 284 303 303
253 251 237 246 262 278 286 261 246 262 259 251 247 247 240 226 235 259 266 212 194 235 242 231 243 251 230 207 207 224 242 254 259 243 240 245 243 240 245 253 262 269 276 282
209 235 235 244 252 262 260 250 245 253 248 238 242 245 225 198 229 278 280 263 232 234 235 229 242 251 223 206 203 223 231 242 258 264 244 244 243 242 244 249 257 265 271 273
224 230 225 224 230 243 259 261 258 254 246 244 230 170 177 197 227 252 262 275 297 293 268 246 246 242 224 223 218 221 225 230 232 239 246 247 252 247 245 249 256 263 274 281
241 233 235 236 232 229 239 246 252 253 249 211 181 206 229 239 250 259 263 260 270 279 282 277 292 274 236 244 252 216 219 227 236 247 251 258 267 256 248 251 258 262 266 272
260 242 234 249 248 219 229 247 244 253 265 206 168 157 231 284 296 301 291 263 257 260 269 280 269 236 250 255 265 221 219 225 233 244 248 245 249 252 250 253 257 261 263 265
263 262 248 251 285 290 256 225 195 224 281 241 188 208 237 268 282 267 278 287 294 290 293 305 317 266 262 263 270 230 221 228 236 241 246 247 250 252 252 254 259 262 263 264
264 258 263 259 285 316 316 295 210 209 252 272 262 233 239 274 290 287 260 255 286 309 322 291 273 272 283 289 237 231 234 238 242 243 243 244 246 250 252 254 258 262 262 260
247 227 229 238 232 274 323 318 256 226 231 243 245 242 244 255 254 252 281 281 292 303 316 281 285 291 299 297 241 241 244 246 249 250 250 249 247 247 250 253 255 257 258 259
236 231 242 242 131 111 305 300 301 289 268 269 264 255 247 266 278 256 258 293 302 307 301 293 297 300 313 320 263 260 258 258 257 256 256 254 252 251 252 254 256 256 256 258
221 215 196 182 198 242 257 284 313 304 290 283 282 279 262 237 247 273 280 286 297 310 303 303 307 311 322 286 266 262 262 261 262 261 254 255 255 254 255 256 258 261 261 260
245 252 253 246 241 243 251 259 273 280 285 290 294 286 279 274 265 272 280 284 287 302 305 300 302 303 283 267 262 262 264 273 281 275 265 262 260 258 257 258 259 261 263 263
291 278 277 294 284 259 254 254 256 267 267 264 277 280 280 283 281 282 288 293 293 291 287 286 284 278 273 270 271 269 268 268 266 265 265 263 261 260 260 261 263 264 263 262